Volver al catálogo

STARLINK-34545

ActivoComunicacionesVLEO
NORAD 65105·PAYLOAD·🇺🇸 United States

Lanzado Aug 4, 2025 desde Cape Canaveral Space Force Station

Loading…

Próximos Pases (próximas 24 horas)

TLE

ActualizadoSource: CelesTrak SupGP

Época: Sep 14, 2026, 20:40 UTC

1 65105C 25167AD  26257.86159722  .00045750  00000+0  13514-2 0  2573
2 65105  53.1576 220.2393 0001414  96.0885 193.4913 15.34374172    11

Sigue STARLINK-34545 en tiempo real con AllMySat

Download on the App Store